This is the latest recevied weather packets stored in our database for station/object KC0CAU. If no packets are shown the sender has not sent any weather packets the latest 10 day(s).
| Time | Temp. | Humidity | Pressure | Rain* | Wind** | Luminosity | Snow |
|---|---|---|---|---|---|---|---|
| 1777968963 | 2.22° C | 67% | 1014.4 hPa | 0 mm | - | - | - |
| 1777968058 | 2.22° C | 66% | 1014.3 hPa | 0 mm | - | - | - |
| 1777967147 | 2.22° C | 65% | 1014.3 hPa | 0 mm | - | - | - |
| 1777966248 | 2.78° C | 64% | 1014.4 hPa | 0 mm | - | - | - |
| 1777965352 | 2.78° C | 64% | 1014.3 hPa | 0 mm | - | - | - |
| 1777964442 | 2.78° C | 64% | 1014.2 hPa | 0 mm | - | - | - |
| 1777963540 | 2.22° C | 64% | 1014.2 hPa | 0 mm | - | - | - |
| 1777962646 | 2.22° C | 63% | 1014.1 hPa | 0 mm | - | - | - |
| 1777961740 | 1.67° C | 64% | 1014 hPa | 0 mm | - | - | - |
| 1777960833 | 1.11° C | 64% | 1014 hPa | 0 mm | - | - | - |
| 1777959930 | 1.11° C | 64% | 1013.7 hPa | 0 mm | - | - | - |
| 1777959088 | 1.11° C | 63% | 1013.7 hPa | 0 mm | - | - | - |
| 1777958137 | 1.67° C | 63% | 1013.6 hPa | 0 mm | - | - | - |
| 1777957221 | 1.67° C | 62% | 1013.6 hPa | 0 mm | - | - | - |
| 1777956318 | 2.22° C | 61% | 1013.5 hPa | 0 mm | - | - | - |
| 1777955419 | 2.22° C | 59% | 1013.3 hPa | 0 mm | - | - | - |
| 1777954516 | 2.78° C | 59% | 1013.3 hPa | 0 mm | - | - | - |
| 1777953610 | 2.78° C | 58% | 1013.2 hPa | 0 mm | - | - | - |
| 1777952706 | 3.33° C | 57% | 1013.2 hPa | 0 mm | - | - | - |
| 1777951805 | 3.89° C | 55% | 1012.9 hPa | 0 mm | - | - | - |
| 1777950902 | 3.89° C | 54% | 1012.7 hPa | 0 mm | - | - | - |
| 1777950059 | 4.44° C | 53% | 1012.5 hPa | 0 mm | - | - | - |
| 1777949157 | 4.44° C | 52% | 1012.1 hPa | 0 mm | - | - | - |
| 1777948256 | 5° C | 51% | 1011.7 hPa | 0 mm | - | - | - |
| 1777947352 | 5.56° C | 50% | 1011.4 hPa | 0 mm | - | - | - |
* Rain latest hour (hover to see other rain measurements)
** Current wind speed in m/s (hover to see current wind gust speed)